World > North America > United States > New York

Hourly Sandy Creek, NY Regional Weather

Feedback E-mail the Weather

Latest News

Sandy Creek, NY Weather Maps

°F °C°F °C
Sandy Creek Weather Map
UTC Time: 5/28/2022, 23:01
Your Time:

Sandy Creek, NY Regional Weather

Expires:202205282300;;718959
ASUS41 KALY 282210
RWRALY

NEW YORK STATE HOURLY WEATHER ROUNDUP
NATIONAL WEATHER SERVICE ALBANY NY
600 PM EDT SAT MAY 28 2022

NOTE: "FAIR" INDICATES FEW OR NO CLOUDS BELOW 12,000 FEET WITH NO
SIGNIFICANT WEATHER AND/OR NO OBSTRUCTIONS TO VISIBILITY.


NYZ005>009-017-018-044>046-055-056-282300-
CENTRAL

  
CITY           SKY/WX    TMP DP  RH WIND       PRES   REMARKS
FULTON         SUNNY     66  54  65 NW10      29.85R                  
SYRACUSE       MOSUNNY   68  52  56 NW10      29.84R                  
ROME           PTSUNNY   70  53  54 W14       29.81R                  
ELMIRA         CLOUDY    67  56  67 NE7       29.85R                  
BINGHAMTON     CLOUDY    62  54  74 W9        29.85R                  
MONTICELLO     PTSUNNY   69  59  70 NW12G24   29.81R                  
$$


SKY/WX - Weather  TMP - Temperature  DP - Dew Point  RH - Humidity
WIND - Wind Direction/Speed PRES - Barometric Pressure VSB - Visibility
WCI - Wind Chill Index E13G22 Wind - East Wind 13 mph/Gusts of 22 mph

Trending Headlines

Sandy Creek Radar Loop



Sandy Creek Quick Facts


National Two Day Weather Forecast


E-mail the Sandy Creek Weather Forecast

Voice your opinion or tell us about page issues...